Other Surface Observations
Issued by NWS Upton, NY

Home | Current Version | Previous Version | Text Only | Print | Product List | Glossary On
Versions: 1 2 3 4 5 6 7 8 9 10 11 12 13 14 15 16 17 18 19 20 21 22 23 24 25 26 27 28 29 30 31 32 33 34 35 36 37 38 39 40 41 42 43 44 45 46 47 48 49 50
000
SXUS51 KOKX 130757
OSOOKX
NEW YORK CITY METROPOLITAN AREA WEATHER ROUNDUP
National Weather Service New York NY
300 AM EST WED DEC 13 2017

CITY           SKY/WX    TMP DP  RH WIND       PRES   REMARKS
Central Park   PTCLDY    23   3  42 W10G17    29.54R WCI  12
LaGuardia APRT PTCLDY    25   5  42 W25G33    29.52R WCI   9
Kennedy INTL   PTCLDY    23   2  40 W24G33    29.53R WCI   7
Newark Liberty PTCLDY    23   2  40 W24G31    29.55R WCI   7
Teterboro APRT PTCLDY    22   3  44 W16G23    29.53R WCI   8
Bronx Bot Gard   N/A     23   1  39 N12       29.52S WCI  12
Bronx Lehman C   N/A     23   1  39 W21G33      N/A  WCI   8
Queens College   N/A     25   3  39 W15         N/A  WCI  12
Breezy Point     N/A    N/A N/A N/A NW21G32     N/A
Brooklyn Coll    N/A     25   3  39 W21G35      N/A  WCI  10
Staten Island    N/A     25   3  39 W16         N/A  WCI  12

>>>>>>>>>>>>>>>>>>>>>>>>>>>>>>>>> KEY <<<<<<<<<<<<<<<<<<<<<<<<<<<<<<<
> SKY/WX - SKY CONDITION/PRESENT    : R : WCI - WIND CHILL INDEX    <
>          WEATHER                  : E : VSB - VISIBILITY IN MILES <
> TMP    - TEMPERATURE IN DEG F     : M : HX  - HEAT INDEX          <
> DP     - DEW POINT TEMPERATURE    : A : TC  - TEMPERATURE IN      <
> RH     - RELATIVE HUMIDITY        : R :       CELSIUS             <
> WIND   - DIRECTION/SPEED (MPH)    : K : VRB - VARIABLE WIND  DIR  <
> PRES   - PRESSURE (IN HG)         : S :                           <
>>>>>>>>>>>>>>>>>>>>>>>>>>>>>>>>> KEY <<<<<<<<<<<<<<<<<<<<<<<<<<<<<<<




USA.gov is the U.S. government's official web portal to all federal, state and local government web resources and services.